Flag for Algeria Weather past 2 weeks in Constantine, Algeria

Now
93 °F

Sunny.


Feels Like: 90 °F
Forecast: 61 / 94 °F
Wind: 15 mph from North

Location: Constantine Airport

Current Time: Aug 28, 2014 at 5:16:26 PM

Latest Report: Aug 28, 2014 at 4:30 PM


Visibility: 10 mi

Pressure: 30.07 "Hg

Humidity: 21%

Dew point: 48 °F

Location of ConstantineLocation

Historic Weather in Constantine — Graph

°F

Constantine temperature yesterday

Maximum temperature yesterday: 95 °F (at 2:00 PM)
Minimum temperature yesterday: 66 °F (at 5:00 AM)
Average temperature yesterday: 80 °F

Past Weeks' High & Low Weather Summary

 TemperatureHumidityPressure
High108 °F (Aug 19, 2:00 PM)94% (Aug 24, 6:00 AM)30.21 "Hg (Aug 24, 6:00 AM)
Low63 °F (Aug 17, 5:00 AM)12% (Aug 19, 2:00 PM)29.92 "Hg (Aug 13, 4:00 PM)
Average79 °F51%30.08 "Hg
* Reported Aug 13 4:00 PM — Aug 28 4:00 PM, Constantine, Weather by CustomWeather, © 2014

Note: Actual official high and low records may vary slightly from our data, if they occured in-between our weather recording intervals... More about our weather records

Advertising

Constantine weather history for previous 24 hours

 ConditionsComfort  
Time TempWeatherWind HumidityBarometerVisibility
4:00 PM
Aug 28
91 °FSunny.15 mph30%30.07 "Hg10 mi
3:30 PM93 °FSunny.12 mph21%30.07 "Hg10 mi
3:00 PM95 °FSunny.9 mph20%30.07 "Hg10 mi
2:30 PM95 °FSunny.14 mph20%30.07 "Hg10 mi
2:00 PM95 °FSunny.14 mph20%30.09 "Hg10 mi
1:30 PM93 °FSunny.9 mph21%30.09 "Hg10 mi
1:00 PM91 °FSunny.9 mph23%30.09 "Hg10 mi
12:30 PM93 °FSunny.9 mph21%30.09 "Hg10 mi
12:00 PM90 °FSunny.9 mph20%30.09 "Hg10 mi
11:30 AM90 °FSunny.9 mph18%30.09 "Hg10 mi
11:00 AM90 °FSunny.7 mph18%30.12 "Hg10 mi
10:30 AM86 °FSunny.No wind27%30.12 "Hg10 mi
10:00 AM84 °FSunny.No wind33%30.12 "Hg10 mi
9:30 AM84 °FSunny.No wind33%30.12 "Hg10 mi
9:00 AM77 °FSunny.No wind42%30.12 "Hg10 mi
8:30 AM75 °FSunny.No wind44%30.12 "Hg10 mi
8:00 AM72 °FSunny.No wind50%30.09 "Hg10 mi
7:30 AM68 °FSunny.No wind56%30.09 "Hg10 mi
7:00 AM66 °FSunny.No wind60%30.09 "Hg10 mi
6:00 AM63 °FClear.No wind64%30.09 "Hg10 mi
5:00 AM63 °FClear.No wind64%30.07 "Hg10 mi
4:30 AM63 °FClear.No wind64%30.07 "Hg10 mi
3:00 AM64 °FClear.No wind60%30.07 "Hg10 mi
2:30 AM66 °FClear.No wind52%30.07 "Hg10 mi
1:30 AM66 °FClear.No wind56%30.09 "Hg10 mi
1:00 AM68 °FClear.No wind53%30.09 "Hg10 mi
12:30 AM70 °FClear.No wind53%30.09 "Hg10 mi
12:00 AM70 °FClear.No wind53%30.09 "Hg10 mi
11:30 PM
Aug 27
70 °FClear.No wind53%30.09 "Hg10 mi
11:00 PM68 °FClear.No wind53%30.09 "Hg10 mi
10:30 PM72 °FClear.3 mph50%30.09 "Hg10 mi
10:00 PM75 °FClear.3 mph47%30.09 "Hg10 mi
9:30 PM73 °FClear.No wind50%30.09 "Hg10 mi
8:30 PM77 °FClear.No wind44%30.07 "Hg10 mi
8:00 PM79 °FClear.6 mph42%30.07 "Hg10 mi
7:30 PM81 °FClear.9 mph42%30.07 "Hg10 mi
6:30 PM86 °FSunny.12 mph35%30.04 "Hg10 mi
5:30 PM90 °FSunny.12 mph33%30.04 "Hg10 mi
5:00 PM91 °FSunny.16 mph32%30.04 "Hg10 mi
Weather by CustomWeather, © 2014

See weather overviewHow to use our weather pages